Retour au catalogue

HULIANWANG DIGUI-01

ActifCommunicationsPO
NORAD 62323·PAYLOAD·🇨🇳 China

Lancé Dec 16, 2024 depuis Wenchang Space Launch Site

Loading…

Prochains Passages (prochaines 24 heures)

TLE

FraisSource: Space-Track

Époque: Sep 14, 2026, 14:21 UTC

1 62323U 24240A   26257.59846106  .00000025  00000-0  24423-4 0  9995
2 62323  86.4995 313.0893 0001775  89.8380 270.2957 13.24414058 84479

Suivez HULIANWANG DIGUI-01 en temps réel avec AllMySat

Download on the App Store